Regional Weather Roundup
Issued by NWS

Home | Current Version | Previous Version | Text Only | Print | Product List | Glossary Off
Versions: 1 2 3 4 5 6 7 8 9 10 11 12 13 14 15 16 17 18 19 20 21 22 23 24 25 26 27 28 29 30 31 32 33 34 35 36 37 38 39 40 41 42 43 44 45 46 47 48 49 50

000
ASUS43 KFSD 111810
RWRSD

WEATHER ROUNDUP FOR SOUTH DAKOTA
NATIONAL WEATHER SERVICE SIOUX FALLS SD
100 PM CDT FRI JUL 11 2014

NOTE: "FAIR" INDICATES FEW OR NO CLOUDS BELOW 12,000 FEET WITH NO
SIGNIFICANT WEATHER AND/OR OBSTRUCTIONS TO VISIBILITY.


SDZ001>005-009-010-012>017-111900-
NORTHWEST AND NORTH CENTRAL SOUTH DAKOTA

CITY           SKY/WX    TMP DP  RH WIND       PRES   REMARKS
BUFFALO          N/A     79  54  41 NE16G29   30.03R
FAITH            N/A     83  68  60 NE20G28   30.02R
MOBRIDGE       MOSUNNY   81  69  67 NE12      29.96R
$$

SDZ012>016-024>037-041>051-057-063-072>074-111900-
SOUTHWEST AND SOUTH CENTRAL SOUTH DAKOTA

CITY           SKY/WX    TMP DP  RH WIND       PRES   REMARKS
RAPID CTY ARPT SUNNY     85  65  51 N14       30.05R
PIERRE         SUNNY     87  69  54 N12       29.95R
CUSTER         MOSUNNY   79  55  43 E9G17     30.19R
ELLSWORTH AFB  MOSUNNY   84  66  53 NE14      30.06R
PHILIP           N/A    N/A N/A N/A NE15G24   29.97R
PINE RIDGE     PTSUNNY   84  64  50 SE7       30.03S
WINNER         FAIR      89  66  46 NE7       29.96R
$$

SDZ004>011-016>023-039-040-111900-
NORTHEAST SOUTH DAKOTA

CITY           SKY/WX    TMP DP  RH WIND       PRES   REMARKS
ABERDEEN       MOSUNNY   83  69  62 NE5       29.93R
WATERTOWN      MOSUNNY   83  71  67 N6        29.94R
SISSETON         N/A     85  71  63 N8        29.90R
$$

SDZ017-020-022-023-036>040-048>070-111900-
SOUTHEAST SOUTH DAKOTA

CITY           SKY/WX    TMP DP  RH WIND       PRES   REMARKS
SIOUX FALLS    CLOUDY    80  71  74 SW9       29.95S
HURON          MOSUNNY   89  71  55 N9        29.91R HX  95
CHAMBERLAIN    MOSUNNY   87  71  59 N6        29.94R
MITCHELL       PTSUNNY   84  73  69 VRB3      29.93R
YANKTON        MOSUNNY   82  72  69 SE3       29.94S
$$

ABBREVIATIONS USED IN REMARKS
   TC - TEMPERATURE IN CELSIUS
  WCI - WIND CHILL INDEX
   HX - HEAT INDEX
  VSB - VISIBILITY



USA.gov is the U.S. government's official web portal to all federal, state and local government web resources and services.